Location: Observatory
(52.1446°N, 0.4624°W)
Time: 05:03:04
(UTC+01:00)

ISS - Pass Details

Date: 24 May 2018
Orbit: 402 x 407 km, 51.6° (Epoch: 24 May)

Event Time Altitude Azimuth Distance (km) Brightness Sun altitude
Rises 01:54:23 0° 281° (WNW) 2,322 0.0 -16.1°
Reaches altitude 10° 01:56:31 10° 275° (W) 1,460 -1.1 -16.0°
Maximum altitude 01:59:39 45° 202° (SSW) 561 -3.6 -15.9°
Enters shadow 02:00:19 38° 166° (SSE) 627 -3.3 -15.9°
